Time,TemperatureF,DewpointF,PressureIn,WindDirection,WindDirectionDegrees,WindSpeedMPH,WindSpeedGustMPH,Humidity,HourlyPrecipIn,Conditions,Clouds,dailyrainin,SoftwareType,DateUTC
2013-08-23 00:05:00,73.2,70.0,29.83,WNW,291,8.0,12.0,89,0.00,,,0.00,weatherlink.com 1.10,2013-08-23 04:05:00,
2013-08-23 00:20:00,73.0,70.0,29.83,West,280,9.0,10.0,89,0.00,,,0.00,weatherlink.com 1.10,2013-08-23 04:20:00,
2013-08-23 00:35:00,72.9,70.0,29.83,WNW,295,5.0,12.0,89,0.00,,,0.00,weatherlink.com 1.10,2013-08-23 04:35:00,
2013-08-23 00:50:00,72.8,70.0,29.82,West,272,2.0,12.0,89,0.00,,,0.00,weatherlink.com 1.10,2013-08-23 04:50:00,
2013-08-23 01:05:00,72.6,70.0,29.83,WNW,296,9.0,12.0,90,0.00,,,0.00,weatherlink.com 1.10,2013-08-23 05:05:00,
2013-08-23 01:20:00,72.6,70.0,29.83,WNW,302,6.0,16.0,90,0.00,,,0.00,weatherlink.com 1.10,2013-08-23 05:20:00,
2013-08-23 01:35:00,72.5,70.0,29.83,NW,318,4.0,14.0,90,0.00,,,0.00,weatherlink.com 1.10,2013-08-23 05:35:00,
2013-08-23 01:50:00,72.5,70.0,29.83,NW,316,0.0,11.0,90,0.00,,,0.00,weatherlink.com 1.10,2013-08-23 05:50:00,
2013-08-23 02:05:00,72.5,70.0,29.83,NW,306,6.0,9.0,90,0.00,,,0.00,weatherlink.com 1.10,2013-08-23 06:05:00,
2013-08-23 02:20:00,72.4,69.0,29.83,NW,316,11.0,12.0,90,0.00,,,0.00,weatherlink.com 1.10,2013-08-23 06:20:00,
2013-08-23 02:35:00,72.3,69.0,29.83,NW,313,8.0,11.0,90,0.00,,,0.00,weatherlink.com 1.10,2013-08-23 06:35:00,
2013-08-23 02:50:00,72.5,70.0,29.82,NW,316,0.0,10.0,90,0.00,,,0.00,weatherlink.com 1.10,2013-08-23 06:50:00,
2013-08-23 03:05:00,72.6,70.0,29.83,North,355,6.0,11.0,90,0.00,,,0.00,weatherlink.com 1.10,2013-08-23 07:05:00,
2013-08-23 03:20:00,72.7,69.0,29.83,North,5,4.0,12.0,89,0.00,,,0.00,weatherlink.com 1.10,2013-08-23 07:20:00,
2013-08-23 03:35:00,72.8,69.0,29.82,NNW,345,4.0,10.0,87,0.00,,,0.00,weatherlink.com 1.10,2013-08-23 07:35:00,
2013-08-23 03:50:00,73.1,68.0,29.82,North,360,11.0,15.0,83,0.00,,,0.00,weatherlink.com 1.10,2013-08-23 07:50:00,
2013-08-23 04:05:00,73.2,67.0,29.83,North,360,8.0,14.0,80,0.00,,,0.00,weatherlink.com 1.10,2013-08-23 08:05:00,
2013-08-23 04:20:00,73.3,66.0,29.83,NNE,31,3.0,14.0,78,0.00,,,0.00,weatherlink.com 1.10,2013-08-23 08:20:00,
2013-08-23 04:35:00,73.3,66.0,29.84,North,350,5.0,12.0,77,0.00,,,0.00,weatherlink.com 1.10,2013-08-23 08:35:00,
2013-08-23 04:50:00,73.1,65.0,29.84,NNW,342,8.0,18.0,75,0.00,,,0.00,weatherlink.com 1.10,2013-08-23 08:50:00,
2013-08-23 05:05:00,72.7,64.0,29.84,ENE,69,1.0,18.0,74,0.00,,,0.00,weatherlink.com 1.10,2013-08-23 09:05:00,
2013-08-23 05:20:00,72.3,64.0,29.85,North,350,9.0,18.0,74,0.00,,,0.00,weatherlink.com 1.10,2013-08-23 09:20:00,
2013-08-23 05:35:00,71.9,63.0,29.85,NE,55,2.0,16.0,74,0.00,,,0.00,weatherlink.com 1.10,2013-08-23 09:35:00,
2013-08-23 05:50:00,71.6,63.0,29.85,NW,325,5.0,15.0,75,0.00,,,0.00,weatherlink.com 1.10,2013-08-23 09:50:00,
2013-08-23 06:05:00,71.3,63.0,29.86,NNW,336,6.0,15.0,76,0.00,,,0.00,weatherlink.com 1.10,2013-08-23 10:05:00,
2013-08-23 06:20:00,71.1,64.0,29.87,NW,314,10.0,17.0,77,0.00,,,0.00,weatherlink.com 1.10,2013-08-23 10:20:00,
2013-08-23 06:35:00,71.0,63.0,29.88,WNW,301,5.0,15.0,77,0.00,,,0.00,weatherlink.com 1.10,2013-08-23 10:35:00,
2013-08-23 06:50:00,71.0,63.0,29.88,NNW,340,5.0,12.0,76,0.00,,,0.00,weatherlink.com 1.10,2013-08-23 10:50:00,
2013-08-23 07:05:00,71.4,63.0,29.89,NE,36,4.0,10.0,75,0.00,,,0.00,weatherlink.com 1.10,2013-08-23 11:05:00,
2013-08-23 07:20:00,71.7,63.0,29.89,NNE,33,4.0,15.0,73,0.00,,,0.00,weatherlink.com 1.10,2013-08-23 11:20:00,
2013-08-23 07:35:00,71.9,62.0,29.90,NE,35,3.0,13.0,72,0.00,,,0.00,weatherlink.com 1.10,2013-08-23 11:35:00,
2013-08-23 07:51:00,72.5,63.0,29.91,NNW,338,10.0,16.0,71,0.00,,,0.00,weatherlink.com 1.10,2013-08-23 11:51:00,
2013-08-23 08:06:00,72.4,62.0,29.91,ENE,58,4.0,17.0,70,0.00,,,0.00,weatherlink.com 1.10,2013-08-23 12:06:00,
2013-08-23 08:21:00,72.2,62.0,29.91,NW,307,7.0,17.0,70,0.00,,,0.00,weatherlink.com 1.10,2013-08-23 12:21:00,
2013-08-23 08:36:00,73.1,62.0,29.92,NE,53,6.0,11.0,68,0.00,,,0.00,weatherlink.com 1.10,2013-08-23 12:36:00,
2013-08-23 08:51:00,73.3,61.0,29.92,NE,36,15.0,20.0,66,0.00,,,0.00,weatherlink.com 1.10,2013-08-23 12:51:00,
2013-08-23 09:06:00,73.2,61.0,29.93,NE,44,14.0,18.0,65,0.00,,,0.00,weatherlink.com 1.10,2013-08-23 13:06:00,
2013-08-23 09:21:00,73.7,61.0,29.93,ENE,59,13.0,14.0,64,0.00,,,0.00,weatherlink.com 1.10,2013-08-23 13:21:00,
2013-08-23 09:36:00,73.6,61.0,29.93,NNW,332,12.0,16.0,64,0.00,,,0.00,weatherlink.com 1.10,2013-08-23 13:36:00,
2013-08-23 09:51:00,73.0,60.0,29.94,NNE,12,4.0,15.0,65,0.00,,,0.00,weatherlink.com 1.10,2013-08-23 13:51:00,
2013-08-23 10:06:00,72.9,61.0,29.94,NE,51,9.0,14.0,66,0.00,,,0.00,weatherlink.com 1.10,2013-08-23 14:06:00,
2013-08-23 10:21:00,73.2,60.0,29.95,East,100,8.0,16.0,63,0.00,,,0.00,weatherlink.com 1.10,2013-08-23 14:21:00,
2013-08-23 10:36:00,73.4,59.0,29.96,East,90,8.0,15.0,62,0.00,,,0.00,weatherlink.com 1.10,2013-08-23 14:36:00,
2013-08-23 10:51:00,74.5,60.0,29.96,NE,45,3.0,12.0,61,0.00,,,0.00,weatherlink.com 1.10,2013-08-23 14:51:00,
2013-08-23 11:06:00,75.0,60.0,29.96,East,98,2.0,14.0,59,0.00,,,0.00,weatherlink.com 1.10,2013-08-23 15:06:00,
2013-08-23 11:21:00,74.8,59.0,29.96,NNE,15,9.0,15.0,58,0.00,,,0.00,weatherlink.com 1.10,2013-08-23 15:21:00,
2013-08-23 11:36:00,75.1,59.0,29.96,NNE,33,8.0,13.0,57,0.00,,,0.00,weatherlink.com 1.10,2013-08-23 15:36:00,
2013-08-23 11:51:00,75.1,60.0,29.95,NE,47,2.0,13.0,59,0.00,,,0.00,weatherlink.com 1.10,2013-08-23 15:51:00,
2013-08-23 12:06:00,77.0,60.0,29.96,NE,42,1.0,9.0,55,0.00,,,0.00,weatherlink.com 1.10,2013-08-23 16:06:00,
2013-08-23 12:21:00,76.6,60.0,29.95,East,80,0.0,14.0,57,0.00,,,0.00,weatherlink.com 1.10,2013-08-23 16:21:00,
2013-08-23 12:36:00,76.5,59.0,29.95,ENE,67,0.0,7.0,55,0.00,,,0.00,weatherlink.com 1.10,2013-08-23 16:36:00,
2013-08-23 12:51:00,76.7,57.0,29.95,ENE,76,4.0,13.0,51,0.00,,,0.00,weatherlink.com 1.10,2013-08-23 16:51:00,
2013-08-23 13:06:00,77.2,58.0,29.95,SSE,150,1.0,13.0,52,0.00,,,0.00,weatherlink.com 1.10,2013-08-23 17:06:00,
2013-08-23 13:21:00,76.9,58.0,29.95,SE,127,8.0,12.0,53,0.00,,,0.00,weatherlink.com 1.10,2013-08-23 17:21:00,
2013-08-23 13:36:00,76.9,57.0,29.95,East,98,1.0,12.0,51,0.00,,,0.00,weatherlink.com 1.10,2013-08-23 17:36:00,
2013-08-23 13:51:00,75.2,58.0,29.96,SE,141,4.0,10.0,55,0.00,,,0.00,weatherlink.com 1.10,2013-08-23 17:51:00,
2013-08-23 14:06:00,75.1,58.0,29.96,SE,144,6.0,11.0,56,0.00,,,0.00,weatherlink.com 1.10,2013-08-23 18:06:00,
2013-08-23 14:21:00,74.7,59.0,29.97,SSE,157,1.0,11.0,58,0.00,,,0.00,weatherlink.com 1.10,2013-08-23 18:21:00,
2013-08-23 14:36:00,74.2,59.0,29.98,SSE,148,5.0,12.0,60,0.00,,,0.00,weatherlink.com 1.10,2013-08-23 18:36:00,
2013-08-23 14:51:00,74.5,59.0,29.98,SE,137,7.0,9.0,59,0.00,,,0.00,weatherlink.com 1.10,2013-08-23 18:51:00,
2013-08-23 15:06:00,74.2,59.0,29.98,SE,126,3.0,7.0,60,0.00,,,0.00,weatherlink.com 1.10,2013-08-23 19:06:00,
2013-08-23 15:21:00,73.7,58.0,29.98,SE,133,0.0,10.0,59,0.00,,,0.00,weatherlink.com 1.10,2013-08-23 19:21:00,
2013-08-23 15:36:00,74.4,58.0,29.98,SSE,153,11.0,11.0,56,0.00,,,0.00,weatherlink.com 1.10,2013-08-23 19:36:00,
2013-08-23 15:51:00,74.5,58.0,29.99,SSE,153,3.0,12.0,56,0.00,,,0.00,weatherlink.com 1.10,2013-08-23 19:51:00,
2013-08-23 16:06:00,74.1,57.0,29.99,SE,136,0.0,10.0,56,0.00,,,0.00,weatherlink.com 1.10,2013-08-23 20:06:00,
2013-08-23 16:21:00,74.9,55.0,29.99,SE,134,3.0,9.0,51,0.00,,,0.00,weatherlink.com 1.10,2013-08-23 20:21:00,
2013-08-23 16:36:00,75.0,56.0,29.99,SSE,154,3.0,6.0,52,0.00,,,0.00,weatherlink.com 1.10,2013-08-23 20:36:00,
2013-08-23 16:51:00,75.3,56.0,30.00,SE,146,0.0,7.0,52,0.00,,,0.00,weatherlink.com 1.10,2013-08-23 20:51:00,
2013-08-23 17:06:00,76.4,56.0,30.00,SSE,158,0.0,5.0,49,0.00,,,0.00,weatherlink.com 1.10,2013-08-23 21:06:00,
2013-08-23 17:21:00,76.9,56.0,30.00,SSE,159,0.0,4.0,49,0.00,,,0.00,weatherlink.com 1.10,2013-08-23 21:21:00,
2013-08-23 17:36:00,77.4,56.0,30.00,SSE,148,0.0,6.0,47,0.00,,,0.00,weatherlink.com 1.10,2013-08-23 21:36:00,
2013-08-23 17:51:00,76.8,56.0,30.00,SSE,161,6.0,6.0,48,0.00,,,0.00,weatherlink.com 1.10,2013-08-23 21:51:00,
2013-08-23 18:06:00,75.9,54.0,30.01,SE,142,5.0,7.0,47,0.00,,,0.00,weatherlink.com 1.10,2013-08-23 22:06:00,
2013-08-23 18:21:00,74.8,53.0,30.01,SSE,153,3.0,6.0,47,0.00,,,0.00,weatherlink.com 1.10,2013-08-23 22:21:00,
2013-08-23 18:36:00,75.2,54.0,30.02,SSE,163,0.0,4.0,48,0.00,,,0.00,weatherlink.com 1.10,2013-08-23 22:36:00,
2013-08-23 18:52:00,75.2,54.0,30.02,SSE,157,0.0,3.0,48,0.00,,,0.00,weatherlink.com 1.10,2013-08-23 22:52:00,
2013-08-23 19:07:00,74.1,54.0,30.02,SE,125,0.0,8.0,50,0.00,,,0.00,weatherlink.com 1.10,2013-08-23 23:07:00,
2013-08-23 19:22:00,73.7,54.0,30.02,SE,127,0.0,5.0,51,0.00,,,0.00,weatherlink.com 1.10,2013-08-23 23:22:00,
2013-08-23 19:37:00,72.9,54.0,30.02,SE,128,0.0,3.0,52,0.00,,,0.00,weatherlink.com 1.10,2013-08-23 23:37:00,
2013-08-23 19:52:00,72.2,54.0,30.03,SE,128,0.0,2.0,54,0.00,,,0.00,weatherlink.com 1.10,2013-08-23 23:52:00,
2013-08-23 20:07:00,71.8,54.0,30.04,SE,130,0.0,3.0,54,0.00,,,0.00,weatherlink.com 1.10,2013-08-24 00:07:00,
2013-08-23 20:22:00,71.5,54.0,30.05,SE,130,0.0,0.0,55,0.00,,,0.00,weatherlink.com 1.10,2013-08-24 00:22:00,
2013-08-23 20:37:00,71.3,55.0,30.05,SE,130,0.0,0.0,56,0.00,,,0.00,weatherlink.com 1.10,2013-08-24 00:37:00,
2013-08-23 20:52:00,71.1,54.0,30.06,SE,130,0.0,0.0,56,0.00,,,0.00,weatherlink.com 1.10,2013-08-24 00:52:00,
2013-08-23 21:07:00,71.2,55.0,30.07,SE,130,0.0,0.0,56,0.00,,,0.00,weatherlink.com 1.10,2013-08-24 01:07:00,
2013-08-23 21:22:00,71.3,55.0,30.07,SE,130,0.0,0.0,56,0.00,,,0.00,weatherlink.com 1.10,2013-08-24 01:22:00,
2013-08-23 21:37:00,71.4,54.0,30.08,ESE,114,0.0,5.0,54,0.00,,,0.00,weatherlink.com 1.10,2013-08-24 01:37:00,
2013-08-23 21:52:00,72.2,53.0,30.08,NNE,25,3.0,9.0,52,0.00,,,0.00,weatherlink.com 1.10,2013-08-24 01:52:00,
2013-08-23 22:07:00,72.1,52.0,30.09,NE,40,1.0,10.0,50,0.00,,,0.00,weatherlink.com 1.10,2013-08-24 02:07:00,
2013-08-23 22:22:00,71.7,51.0,30.09,NNE,31,6.0,13.0,48,0.00,,,0.00,weatherlink.com 1.10,2013-08-24 02:22:00,
2013-08-23 22:37:00,71.1,51.0,30.09,NE,46,7.0,13.0,49,0.00,,,0.00,weatherlink.com 1.10,2013-08-24 02:37:00,
2013-08-23 22:52:00,70.6,51.0,30.10,NNE,26,3.0,11.0,51,0.00,,,0.00,weatherlink.com 1.10,2013-08-24 02:52:00,
2013-08-23 23:07:00,70.2,51.0,30.11,ENE,58,2.0,13.0,51,0.00,,,0.00,weatherlink.com 1.10,2013-08-24 03:07:00,
2013-08-23 23:22:00,69.6,52.0,30.11,NE,46,6.0,11.0,53,0.00,,,0.00,weatherlink.com 1.10,2013-08-24 03:22:00,
2013-08-23 23:37:00,69.1,52.0,30.12,NNE,24,2.0,13.0,55,0.00,,,0.00,weatherlink.com 1.10,2013-08-24 03:37:00,
2013-08-23 23:52:00,68.6,51.0,30.13,NNE,22,4.0,13.0,53,0.00,,,0.00,weatherlink.com 1.10,2013-08-24 03:52:00,